Powrót do katalogu

CZ-3B DEB

LostHEO
NORAD 40844·DEBRIS·🇨🇳 China

Wystrzelony Dec 19, 2011 z Xichang Satellite Launch Center

Loading…

Następne Przeloty (najbliższe 24 godziny)

TLE

NieaktualneSource: Space-Track

Epoka: May 27, 2022, 13:27 UTC

1 40844U 11077Z   22147.56056962 -.00000329  00000-0  52200-3 0  9998
2 40844  23.0834   0.4248 7551615 236.1298  29.1831  1.82109207 48793

Śledź CZ-3B DEB w czasie rzeczywistym z AllMySat

Download on the App Store